EN

Hourly Weather Altendorf

Today, 28 January, Thursday

Time Temperature Precipitation Wind Pressure Humidity
00:00 +5°C° 1.4 mm 1 mps 716 mmHg 99%
01:00 +5°C° 1.4 mm 1 mps 716 mmHg 99%
02:00 +5°C° 1.2 mm 1 mps 716 mmHg 99%
03:00 +5°C° 1.2 mm 1 mps 715 mmHg 99%
04:00 +5°C° 1.2 mm 1 mps 715 mmHg 99%
05:00 +4°C° 1.6 mm 2 mps 715 mmHg 99%
06:00 +4°C° 1.6 mm 2 mps 714 mmHg 99%
07:00 +5°C° 1.6 mm 2 mps 714 mmHg 99%
08:00 +5°C° 1.8 mm 2 mps 713 mmHg 99%
09:00 +5°C° 1.8 mm 2 mps 713 mmHg 99%
10:00 +5°C° 1.8 mm 2 mps 713 mmHg 99%
11:00 +5°C° 2.1 mm 3 mps 712 mmHg 99%
12:00 +5°C° 2.1 mm 3 mps 712 mmHg 99%
13:00 +5°C° 2.1 mm 3 mps 712 mmHg 99%
14:00 +5°C° 2.6 mm 3 mps 712 mmHg 99%
15:00 +5°C° 2.6 mm 3 mps 711 mmHg 98%
16:00 +5°C° 2.6 mm 3 mps 711 mmHg 98%
17:00 +5°C° 1.4 mm 3 mps 712 mmHg 98%
18:00 +5°C° 1.4 mm 3 mps 712 mmHg 98%
19:00 +5°C° 1.4 mm 3 mps 712 mmHg 97%
20:00 +5°C° 1.2 mm 3 mps 712 mmHg 97%
21:00 +5°C° 1.2 mm 3 mps 713 mmHg 97%
22:00 +6°C° 1.2 mm 2 mps 713 mmHg 97%
23:00 +6°C° 0.6 mm 2 mps 713 mmHg 97%

Tomorrow, 29 January, Friday

Time Temperature Precipitation Wind Pressure Humidity
00:00 +6°C° 0.6 mm 2 mps 713 mmHg 96%
01:00 +6°C° 0.6 mm 2 mps 713 mmHg 95%
02:00 +6°C° 0.2 mm 2 mps 712 mmHg 95%
03:00 +6°C° 0.2 mm 2 mps 711 mmHg 94%
04:00 +6°C° 0.2 mm 2 mps 710 mmHg 94%
05:00 +6°C° 0.7 mm 2 mps 709 mmHg 94%
06:00 +6°C° 0.7 mm 2 mps 709 mmHg 95%
07:00 +6°C° 0.7 mm 2 mps 708 mmHg 96%
08:00 +5°C° 2 mm 3 mps 708 mmHg 96%
09:00 +5°C° 2 mm 3 mps 708 mmHg 96%
10:00 +5°C° 2 mm 3 mps 708 mmHg 97%
11:00 +5°C° 2.1 mm 3 mps 708 mmHg 96%
12:00 +5°C° 2.1 mm 3 mps 709 mmHg 96%
13:00 +5°C° 2.1 mm 3 mps 709 mmHg 95%
14:00 +5°C° 0.4 mm 3 mps 709 mmHg 95%
15:00 +5°C° 0.4 mm 3 mps 709 mmHg 94%
16:00 +5°C° 0.4 mm 3 mps 708 mmHg 93%
17:00 +4°C° 1.5 mm 3 mps 708 mmHg 95%
18:00 +4°C° 1.5 mm 3 mps 708 mmHg 96%
19:00 +3°C° 1.5 mm 3 mps 708 mmHg 97%
20:00 +4°C° 1.9 mm 3 mps 709 mmHg 96%
21:00 +4°C° 1.9 mm 4 mps 709 mmHg 96%
22:00 +4°C° 1.9 mm 4 mps 709 mmHg 95%
23:00 +3°C° 0.7 mm 4 mps 710 mmHg 95%

Day after tomorrow, 30 January, Saturday

Time Temperature Precipitation Wind Pressure Humidity
00:00 +3°C° 0.7 mm 4 mps 710 mmHg 95%
01:00 +3°C° 0.7 mm 4 mps 711 mmHg 95%
02:00 +3°C° 0.2 mm 3 mps 710 mmHg 94%
03:00 +2°C° 0.2 mm 3 mps 710 mmHg 93%
04:00 +3°C° 0.2 mm 2 mps 710 mmHg 92%
05:00 +2°C° 0 mm 2 mps 709 mmHg 89%
06:00 +2°C° 0 mm 2 mps 709 mmHg 86%
07:00 +1°C° 0 mm 2 mps 708 mmHg 83%
08:00 +2°C° 0 mm 2 mps 707 mmHg 82%
09:00 +4°C° 0 mm 1 mps 707 mmHg 81%
10:00 +5°C° 0 mm 1 mps 706 mmHg 79%
11:00 +6°C° 0.2 mm 1 mps 706 mmHg 83%
12:00 +6°C° 0.2 mm 1 mps 705 mmHg 88%
13:00 +6°C° 0.2 mm 0 mps 704 mmHg 92%
14:00 +6°C° 0.9 mm 1 mps 703 mmHg 93%
15:00 +6°C° 0.9 mm 1 mps 703 mmHg 95%
16:00 +5°C° 0.9 mm 1 mps 703 mmHg 97%
17:00 +5°C° 1.3 mm 1 mps 703 mmHg 97%
18:00 +5°C° 1.3 mm 2 mps 703 mmHg 97%
19:00 +5°C° 1.3 mm 2 mps 703 mmHg 97%
20:00 +4°C° 0.4 mm 2 mps 703 mmHg 97%
21:00 +4°C° 0.4 mm 2 mps 704 mmHg 96%
22:00 +5°C° 0.4 mm 1 mps 704 mmHg 96%
23:00 +5°C° 0.4 mm 1 mps 704 mmHg 96%

31 January, Sunday

Time Temperature Precipitation Wind Pressure Humidity
00:00 +5°C° 0.4 mm 1 mps 704 mmHg 97%
01:00 +5°C° 0.4 mm 1 mps 704 mmHg 97%
02:00 +5°C° 0.3 mm 1 mps 704 mmHg 97%
03:00 +5°C° 0.3 mm 1 mps 704 mmHg 97%
04:00 +5°C° 0.3 mm 1 mps 704 mmHg 97%
05:00 +4°C° 0 mm 1 mps 704 mmHg 96%
06:00 +4°C° 0 mm 1 mps 704 mmHg 96%
07:00 +3°C° 0 mm 1 mps 704 mmHg 95%
08:00 +4°C° 0 mm 1 mps 704 mmHg 93%
09:00 +5°C° 0 mm 1 mps 704 mmHg 91%
10:00 +6°C° 0 mm 1 mps 704 mmHg 89%
11:00 +6°C° 0 mm 1 mps 705 mmHg 88%
12:00 +6°C° 0 mm 0 mps 705 mmHg 87%
13:00 +7°C° 0 mm 0 mps 705 mmHg 86%
14:00 +7°C° 0 mm 0 mps 704 mmHg 88%
15:00 +7°C° 0 mm 1 mps 704 mmHg 90%
16:00 +7°C° 0 mm 1 mps 704 mmHg 92%
17:00 +6°C° 0 mm 1 mps 704 mmHg 90%
18:00 +6°C° 0 mm 1 mps 704 mmHg 88%
19:00 +5°C° 0 mm 1 mps 704 mmHg 86%
20:00 +5°C° 0.1 mm 1 mps 704 mmHg 85%
21:00 +5°C° 0.1 mm 1 mps 704 mmHg 83%
22:00 +5°C° 0.1 mm 1 mps 704 mmHg 82%
23:00 +5°C° 0.1 mm 1 mps 703 mmHg 83%

1 February, Monday

Time Temperature Precipitation Wind Pressure Humidity
00:00 +4°C° 0.1 mm 2 mps 703 mmHg 85%
01:00 +4°C° 0.1 mm 2 mps 703 mmHg 87%
02:00 +4°C° 0.3 mm 2 mps 702 mmHg 89%
03:00 +4°C° 0.3 mm 2 mps 702 mmHg 91%
04:00 +4°C° 0.3 mm 2 mps 702 mmHg 93%
05:00 +4°C° 1.1 mm 2 mps 702 mmHg 94%
06:00 +4°C° 1.1 mm 2 mps 703 mmHg 95%
07:00 +4°C° 1.1 mm 2 mps 703 mmHg 95%
08:00 +5°C° 1.7 mm 2 mps 703 mmHg 96%
09:00 +4°C° 1.7 mm 3 mps 704 mmHg 96%
10:00 +5°C° 1.7 mm 3 mps 704 mmHg 96%
11:00 +5°C° 1.5 mm 3 mps 705 mmHg 96%
12:00 +5°C° 1.5 mm 3 mps 705 mmHg 96%
13:00 +5°C° 1.5 mm 3 mps 706 mmHg 97%
14:00 +5°C° 2 mm 3 mps 706 mmHg 97%
15:00 +5°C° 2 mm 3 mps 707 mmHg 97%
16:00 +6°C° 2 mm 2 mps 708 mmHg 97%
17:00 +5°C° 1.8 mm 2 mps 709 mmHg 97%
18:00 +5°C° 1.8 mm 2 mps 710 mmHg 97%
19:00 +5°C° 1.8 mm 2 mps 711 mmHg 97%
20:00 +5°C° 1.4 mm 2 mps 711 mmHg 97%
21:00 +5°C° 1.4 mm 2 mps 712 mmHg 97%
22:00 +5°C° 1.4 mm 2 mps 712 mmHg 96%
23:00 +5°C° 0.3 mm 2 mps 713 mmHg 94%

2 February, Tuesday

Time Temperature Precipitation Wind Pressure Humidity
00:00 +5°C° 0.3 mm 2 mps 713 mmHg 92%
01:00 +5°C° 0.3 mm 2 mps 713 mmHg 90%
02:00 +5°C° 0.2 mm 2 mps 713 mmHg 90%
03:00 +5°C° 0.2 mm 2 mps 713 mmHg 90%
04:00 +5°C° 0.2 mm 2 mps 713 mmHg 90%
05:00 +6°C° 0.9 mm 2 mps 713 mmHg 92%
06:00 +5°C° 0.9 mm 3 mps 713 mmHg 93%
07:00 +5°C° 0.9 mm 3 mps 712 mmHg 95%
08:00 +5°C° 1.7 mm 3 mps 713 mmHg 95%
09:00 +7°C° 1.7 mm 3 mps 713 mmHg 95%
10:00 +7°C° 1.7 mm 3 mps 713 mmHg 95%
11:00 +8°C° 0.8 mm 3 mps 713 mmHg 95%
12:00 +8°C° 0.8 mm 3 mps 713 mmHg 94%
13:00 +9°C° 0.8 mm 3 mps 713 mmHg 94%
14:00 +9°C° 1 mm 2 mps 713 mmHg 94%
15:00 +8°C° 1 mm 2 mps 712 mmHg 95%
16:00 +8°C° 1 mm 2 mps 712 mmHg 96%
17:00 +8°C° 1 mm 2 mps 713 mmHg 96%
18:00 +8°C° 1 mm 2 mps 713 mmHg 96%
19:00 +8°C° 1 mm 2 mps 713 mmHg 96%
20:00 +8°C° 0.5 mm 2 mps 713 mmHg 95%
21:00 +8°C° 0.5 mm 2 mps 713 mmHg 95%
22:00 +8°C° 0.5 mm 2 mps 713 mmHg 95%
23:00 +8°C° 0.1 mm 2 mps 713 mmHg 94%
Show more